Regional Weather Roundup
Issued by NWS

Home | Current Version | Previous Version | Text Only | Print | Product List | Glossary Off
Versions: 1 2 3 4 5 6 7 8 9 10 11 12 13 14 15 16 17 18 19 20 21 22 23 24 25 26 27 28 29 30 31 32 33 34 35 36 37 38 39 40 41 42 43 44 45 46 47 48 49 50

000
ASUS44 KMEG 201000
RWRTN
TENNESSEE HOURLY STATE WEATHER ROUNDUP
NATIONAL WEATHER SERVICE MEMPHIS TN
400 AM CST SAT DEC 20 2014

TNZ002-004-019-021-049-052-054-088>092-201100-
WEST TENNESSEE

CITY           SKY/WX    TMP DP  RH WIND       PRES   REMARKS
MEMPHIS INTL   MOCLDY    37  31  78 N5        30.23R WCI  33
NWS MEMPHIS      N/A     36 N/A N/A MISG        N/A
JACKSON        CLOUDY    35  31  85 NE3       30.23F
DYERSBURG      CLOUDY    37  21  52 NE7       30.25F WCI  32
UNION CITY     CLOUDY    34  30  86 NE5       30.23F WCI  30
PARIS          CLOUDY    30  27  86 NE5       30.23F WCI  25
LEXINGTON      MOCLDY    30  28  93 N5        30.20F WCI  25
SAVANNAH       PTCLDY    32  30  93 CALM      30.22S
$$

TNZ008-025-027-028-033-062-065-066-201100-
NORTH MIDDLE TENNESSEE

CITY           SKY/WX    TMP DP  RH WIND       PRES   REMARKS
NASHVILLE      CLEAR     33  26  75 N7        30.23S WCI  27
CLARKSVILLE    CLOUDY    32  27  81 N5        30.24S WCI  27
COOKEVILLE     CLOUDY    34  28  80 CALM      30.17S
CROSSVILLE     CLOUDY    34  28  79 N5        30.15R WCI  30
$$

TNZ061-075-076-078-094-096-097-201100-
SOUTH MIDDLE TENNESSEE

CITY           SKY/WX    TMP DP  RH WIND       PRES   REMARKS
FAYETTEVILLE   PTCLDY    32  28  86 MISG      30.17S
TULLAHOMA        N/A     32  28  86 N3        30.17F
WINCHESTER     CLOUDY    34  30  86 CALM      30.18S
SHELBYVILLE    MOCLDY    30  28  93 N3        30.20S
$$

TNZ017-018-042-046-047-201100-
NORTHEAST TENNESSEE

CITY           SKY/WX    TMP DP  RH WIND       PRES   REMARKS
TRI CITIES     LGT RAIN  36  28  73 CALM      30.15S
ELIZABETHTON   DRIZZLE   34  28  80 CALM      30.14R
$$

TNZ012-013-036-069-073-074-201100-
CENTRAL EAST TENNESSEE

CITY           SKY/WX    TMP DP  RH WIND       PRES   REMARKS
KNOXVILLE      LGT RAIN  38  30  73 CALM      30.16F
OAK RIDGE      LGT RAIN  38  34  85 CALM      30.18S
GATLINBURG     CLOUDY    36  32  87 CALM      30.16F
$$

TNZ083-085-099-201100-
SOUTHEAST TENNESSEE

CITY           SKY/WX    TMP DP  RH WIND       PRES   REMARKS
CHATTANOOGA    CLOUDY    41  33  73 N5        30.16S
$$

SKY/WX REPORTED AS FAIR MEANS FEW OR NO CLOUDS BELOW
12 THOUSAND FEET.



USA.gov is the U.S. government's official web portal to all federal, state and local government web resources and services.